Location: Boca de Tacagua
(10.5333°N, 66.9833°W)
Time: 02:13:51
(UTC+00:00)

Cosmos 1666 Rocket - Pass Details

Date: 09 July 2022
Orbit: 602 x 633 km, 82.5° (Epoch: 08 August)

Event Time Altitude Azimuth Distance (km) Brightness Sun altitude
Exits shadow 07:16:47 11° 17° (NNE) 1,959 6.6 -38.2°
Drops below altitude 10° 07:16:56 10° 17° (NNE) 2,016 6.7 -38.1°
Sets 07:19:10 0° 12° (NNE) 2,911 7.6 -37.7°
